• în România
  • Lista ţărilor
  • Pe 7 zile
  • Temperatura apei
  • Hartă satelitară
  • Meteo pe hartă
  • Widget-uri
  • user-avatar
    Intrare

    Meteo pe oră la Shkoder

    Astăzi, 16 August, Miercuri

    Timp Temperatura Precipitaţii Vânt Presiune Umiditate
    00:00 +21°C° 0 mm 2 m/s 741 mmHg 70%
    01:00 +22°C° 0 mm 3 m/s 741 mmHg 73%
    02:00 +21°C° 0 mm 3 m/s 741 mmHg 75%
    03:00 +21°C° 0 mm 3 m/s 741 mmHg 78%
    04:00 +20°C° 0 mm 3 m/s 741 mmHg 80%
    05:00 +22°C° 0 mm 3 m/s 741 mmHg 74%
    06:00 +25°C° 0 mm 3 m/s 741 mmHg 69%
    07:00 +27°C° 0 mm 4 m/s 741 mmHg 63%
    08:00 +28°C° 0 mm 3 m/s 741 mmHg 56%
    09:00 +30°C° 0 mm 3 m/s 741 mmHg 50%
    10:00 +32°C° 0 mm 2 m/s 741 mmHg 43%
    11:00 +34°C° 0,1 mm 3 m/s 741 mmHg 41%
    12:00 +35°C° 0,1 mm 3 m/s 741 mmHg 39%
    13:00 +35°C° 0,1 mm 3 m/s 740 mmHg 37%
    14:00 +35°C° 0,2 mm 3 m/s 740 mmHg 38%
    15:00 +35°C° 0,2 mm 3 m/s 740 mmHg 39%
    16:00 +34°C° 0,2 mm 3 m/s 740 mmHg 40%
    17:00 +31°C° 0,1 mm 3 m/s 740 mmHg 45%
    18:00 +29°C° 0,1 mm 3 m/s 740 mmHg 51%
    19:00 +27°C° 0,1 mm 3 m/s 740 mmHg 56%
    20:00 +26°C° 0,6 mm 3 m/s 740 mmHg 60%
    21:00 +25°C° 0,6 mm 3 m/s 740 mmHg 64%
    22:00 +24°C° 0,6 mm 3 m/s 741 mmHg 67%
    23:00 +24°C° 0,5 mm 3 m/s 740 mmHg 69%

    Mâine, 17 August, Joi

    Timp Temperatura Precipitaţii Vânt Presiune Umiditate
    00:00 +24°C° 0,5 mm 3 m/s 740 mmHg 71%
    01:00 +22°C° 0,5 mm 3 m/s 740 mmHg 73%
    02:00 +22°C° 0,3 mm 3 m/s 740 mmHg 74%
    03:00 +22°C° 0,3 mm 3 m/s 740 mmHg 74%
    04:00 +22°C° 0,3 mm 3 m/s 740 mmHg 75%
    05:00 +24°C° 0,2 mm 3 m/s 740 mmHg 71%
    06:00 +25°C° 0,2 mm 3 m/s 740 mmHg 67%
    07:00 +26°C° 0,2 mm 3 m/s 740 mmHg 63%
    08:00 +28°C° 0,1 mm 3 m/s 740 mmHg 56%
    09:00 +30°C° 0,1 mm 3 m/s 740 mmHg 49%
    10:00 +33°C° 0,1 mm 3 m/s 740 mmHg 42%
    11:00 +34°C° 0,3 mm 3 m/s 740 mmHg 40%
    12:00 +35°C° 0,3 mm 3 m/s 740 mmHg 38%
    13:00 +35°C° 0,3 mm 3 m/s 739 mmHg 36%
    14:00 +35°C° 0,3 mm 3 m/s 739 mmHg 37%
    15:00 +35°C° 0,3 mm 4 m/s 739 mmHg 38%
    16:00 +34°C° 0,3 mm 4 m/s 739 mmHg 39%
    17:00 +31°C° 0,1 mm 3 m/s 739 mmHg 44%
    18:00 +29°C° 0,1 mm 3 m/s 739 mmHg 49%
    19:00 +27°C° 0,1 mm 3 m/s 740 mmHg 54%
    20:00 +26°C° 0 mm 3 m/s 740 mmHg 57%
    21:00 +25°C° 0 mm 3 m/s 740 mmHg 59%
    22:00 +24°C° 0 mm 3 m/s 740 mmHg 62%
    23:00 +24°C° 0 mm 3 m/s 740 mmHg 64%

    Poimâine, 18 August, Vineri

    Timp Temperatura Precipitaţii Vânt Presiune Umiditate
    00:00 +22°C° 0 mm 3 m/s 740 mmHg 67%
    01:00 +22°C° 0 mm 3 m/s 740 mmHg 69%
    02:00 +22°C° 0 mm 3 m/s 740 mmHg 70%
    03:00 +21°C° 0 mm 3 m/s 740 mmHg 70%
    04:00 +21°C° 0 mm 3 m/s 740 mmHg 71%
    05:00 +24°C° 0 mm 3 m/s 740 mmHg 66%
    06:00 +25°C° 0 mm 3 m/s 741 mmHg 61%
    07:00 +27°C° 0 mm 3 m/s 741 mmHg 57%
    08:00 +29°C° 0 mm 3 m/s 741 mmHg 49%
    09:00 +31°C° 0 mm 2 m/s 741 mmHg 42%
    10:00 +34°C° 0 mm 2 m/s 741 mmHg 35%
    11:00 +35°C° 0 mm 2 m/s 741 mmHg 33%
    12:00 +36°C° 0 mm 3 m/s 740 mmHg 31%
    13:00 +37°C° 0 mm 3 m/s 740 mmHg 28%
    14:00 +36°C° 0 mm 3 m/s 740 mmHg 30%
    15:00 +36°C° 0 mm 3 m/s 740 mmHg 31%
    16:00 +35°C° 0 mm 3 m/s 739 mmHg 32%
    17:00 +33°C° 0 mm 3 m/s 740 mmHg 37%
    18:00 +30°C° 0 mm 2 m/s 740 mmHg 42%
    19:00 +27°C° 0 mm 2 m/s 740 mmHg 47%
    20:00 +27°C° 0 mm 2 m/s 740 mmHg 47%
    21:00 +26°C° 0 mm 2 m/s 740 mmHg 48%
    22:00 +25°C° 0 mm 2 m/s 741 mmHg 49%
    23:00 +25°C° 0 mm 2 m/s 740 mmHg 50%

    19 August, Sâmbătă

    Timp Temperatura Precipitaţii Vânt Presiune Umiditate
    00:00 +24°C° 0 mm 2 m/s 740 mmHg 51%
    01:00 +24°C° 0 mm 2 m/s 740 mmHg 53%
    02:00 +24°C° 0 mm 2 m/s 740 mmHg 54%
    03:00 +23°C° 0 mm 2 m/s 740 mmHg 55%
    04:00 +23°C° 0 mm 2 m/s 740 mmHg 56%
    05:00 +25°C° 0 mm 2 m/s 740 mmHg 52%
    06:00 +27°C° 0 mm 2 m/s 740 mmHg 49%
    07:00 +28°C° 0 mm 1 m/s 740 mmHg 45%
    08:00 +30°C° 0 mm 1 m/s 740 mmHg 41%
    09:00 +32°C° 0 mm 1 m/s 740 mmHg 36%
    10:00 +35°C° 0 mm 2 m/s 740 mmHg 31%
    11:00 +35°C° 0 mm 2 m/s 740 mmHg 31%
    12:00 +36°C° 0 mm 3 m/s 739 mmHg 31%
    13:00 +36°C° 0 mm 3 m/s 739 mmHg 32%
    14:00 +35°C° 0 mm 3 m/s 739 mmHg 33%
    15:00 +35°C° 0 mm 2 m/s 739 mmHg 34%
    16:00 +34°C° 0 mm 2 m/s 738 mmHg 36%
    17:00 +31°C° 0 mm 2 m/s 738 mmHg 41%
    18:00 +28°C° 0 mm 1 m/s 738 mmHg 47%
    19:00 +26°C° 0 mm 1 m/s 738 mmHg 53%
    20:00 +25°C° 0 mm 1 m/s 739 mmHg 54%
    21:00 +25°C° 0 mm 1 m/s 739 mmHg 55%
    22:00 +24°C° 0 mm 1 m/s 739 mmHg 56%
    23:00 +24°C° 0 mm 2 m/s 739 mmHg 56%

    20 August, Duminică

    Timp Temperatura Precipitaţii Vânt Presiune Umiditate
    00:00 +23°C° 0 mm 2 m/s 739 mmHg 56%
    01:00 +23°C° 0 mm 2 m/s 738 mmHg 56%
    02:00 +23°C° 0 mm 2 m/s 738 mmHg 54%
    03:00 +21°C° 0 mm 2 m/s 738 mmHg 53%
    04:00 +21°C° 0 mm 2 m/s 738 mmHg 51%
    05:00 +24°C° 0 mm 2 m/s 738 mmHg 49%
    06:00 +26°C° 0 mm 2 m/s 739 mmHg 46%
    07:00 +28°C° 0 mm 2 m/s 739 mmHg 44%
    08:00 +29°C° 0 mm 2 m/s 739 mmHg 41%
    09:00 +31°C° 0 mm 2 m/s 739 mmHg 38%
    10:00 +34°C° 0 mm 2 m/s 739 mmHg 36%
    11:00 +34°C° 0,1 mm 3 m/s 739 mmHg 36%
    12:00 +34°C° 0,1 mm 3 m/s 738 mmHg 37%
    13:00 +34°C° 0,1 mm 3 m/s 738 mmHg 38%
    14:00 +33°C° 0,2 mm 3 m/s 738 mmHg 42%
    15:00 +31°C° 0,2 mm 2 m/s 737 mmHg 46%
    16:00 +30°C° 0,2 mm 2 m/s 737 mmHg 49%
    17:00 +28°C° 0,6 mm 1 m/s 738 mmHg 56%
    18:00 +27°C° 0,6 mm 1 m/s 738 mmHg 63%
    19:00 +25°C° 0,6 mm 1 m/s 738 mmHg 69%
    20:00 +24°C° 0,7 mm 2 m/s 738 mmHg 73%
    21:00 +23°C° 0,7 mm 2 m/s 738 mmHg 76%
    22:00 +22°C° 0,7 mm 3 m/s 738 mmHg 79%
    23:00 +21°C° 1,5 mm 3 m/s 738 mmHg 82%

    21 August, Luni

    Timp Temperatura Precipitaţii Vânt Presiune Umiditate
    00:00 +20°C° 1,5 mm 3 m/s 738 mmHg 85%
    01:00 +20°C° 1,5 mm 3 m/s 738 mmHg 88%
    02:00 +20°C° 1,4 mm 3 m/s 738 mmHg 88%
    03:00 +20°C° 1,4 mm 3 m/s 738 mmHg 88%
    04:00 +20°C° 1,4 mm 3 m/s 738 mmHg 88%
    05:00 +20°C° 0,4 mm 3 m/s 738 mmHg 86%
    06:00 +20°C° 0,4 mm 3 m/s 738 mmHg 85%
    07:00 +20°C° 0,4 mm 3 m/s 738 mmHg 83%
    08:00 +22°C° 0,2 mm 3 m/s 738 mmHg 76%
    09:00 +24°C° 0,2 mm 3 m/s 739 mmHg 70%
    10:00 +26°C° 0,2 mm 3 m/s 739 mmHg 63%
    11:00 +26°C° 0,2 mm 4 m/s 739 mmHg 61%
    12:00 +27°C° 0,2 mm 4 m/s 738 mmHg 59%
    13:00 +27°C° 0,2 mm 5 m/s 738 mmHg 57%
    14:00 +27°C° 0 mm 5 m/s 738 mmHg 57%
    15:00 +27°C° 0 mm 4 m/s 738 mmHg 57%
    16:00 +26°C° 0 mm 4 m/s 738 mmHg 58%
    17:00 +25°C° 0 mm 4 m/s 738 mmHg 62%
    18:00 +23°C° 0 mm 4 m/s 739 mmHg 67%
    19:00 +21°C° 0 mm 4 m/s 739 mmHg 72%
    20:00 +20°C° 0 mm 4 m/s 739 mmHg 74%
    21:00 +20°C° 0 mm 4 m/s 739 mmHg 76%
    22:00 +19°C° 0 mm 4 m/s 740 mmHg 78%
    23:00 +19°C° 0 mm 4 m/s 739 mmHg 79%
    Arată mai mult